CZ-4B R/B

基本信息
目录编号:
100657
目录名称:
CZ-4B R/B
国际标识:
2026-205G
轨道中心:
EARTH
物体状态:
在轨
发射日期:
2026-09-10 UTC
国别:
中国 (CN)
轨道信息
数据来源: 国际轨道数据
星历时间: 2026-09-22T00:19:31+0800
半长轴: 6784.399km
偏心率: 0.0156905
轨道倾角: 45.090°
近地点辐角: 61.637°
升交点赤经: 44.205°
平近点角: 300.025°
近地点: 299.811km
远地点: 512.713km
周期: 92.689分钟
每日圈数: 15.535876
详细信息
发射场:
JSC
轨道高度:
LEO
数据来源:
AOE Integration Group
参考系:
TEME
时间系统:
UTC
历元类型:
SGP4
2D轨道图
3D轨道图
轨道高度分析图
轨道倾角分析图
轨道综合分析图
查看轨道综合分析图